Time,TemperatureF,DewpointF,PressureIn,WindDirection,WindDirectionDegrees,WindSpeedMPH,WindSpeedGustMPH,Humidity,HourlyPrecipIn,Conditions,Clouds,dailyrainin,SoftwareType,DateUTC
2013-06-02 00:03:00,67.0,-99.9,-100.00,South,175,4.0,6.0,-999,0.00,,,-99.99,,2013-06-02 04:03:00,
2013-06-02 00:13:00,67.0,-99.9,-100.00,South,175,4.0,6.0,-999,0.00,,,-99.99,,2013-06-02 04:13:00,
2013-06-02 00:23:00,69.0,69.0,-100.00,SSW,200,10.0,12.0,99,0.00,,,-99.99,,2013-06-02 04:23:00,
2013-06-02 00:33:00,69.0,67.0,-100.00,SSW,200,9.0,14.0,94,0.00,,,-99.99,,2013-06-02 04:33:00,
2013-06-02 00:42:00,69.0,66.0,-100.00,SSW,195,12.0,17.0,91,0.00,,,-99.99,,2013-06-02 04:42:00,
2013-06-02 00:53:00,69.0,66.0,-100.00,South,190,9.0,16.0,91,0.00,,,-99.99,,2013-06-02 04:53:00,
2013-06-02 01:03:00,69.0,66.0,-100.00,SSW,195,12.0,16.0,91,0.00,,,-99.99,,2013-06-02 05:03:00,
2013-06-02 01:12:00,69.0,66.0,-100.00,SSW,195,12.0,19.0,90,0.00,,,-99.99,,2013-06-02 05:12:00,
2013-06-02 01:22:00,68.0,65.0,-100.00,SSW,200,16.0,21.0,90,0.00,,,-99.99,,2013-06-02 05:22:00,
2013-06-02 01:32:00,68.0,65.0,-100.00,South,190,9.0,20.0,90,0.00,,,-99.99,,2013-06-02 05:32:00,
2013-06-02 01:42:00,68.0,65.0,-100.00,South,190,11.0,17.0,92,0.00,,,-99.99,,2013-06-02 05:42:00,
2013-06-02 01:52:00,68.0,65.0,-100.00,SSW,200,13.0,20.0,92,0.00,,,-99.99,,2013-06-02 05:52:00,
2013-06-02 02:01:00,67.0,65.0,-100.00,SSW,195,13.0,22.0,93,0.00,,,-99.99,,2013-06-02 06:01:00,
2013-06-02 02:12:00,67.0,65.0,-100.00,SSW,200,13.0,20.0,93,0.00,,,-99.99,,2013-06-02 06:12:00,
2013-06-02 02:21:00,67.0,65.0,-100.00,SSW,200,11.0,19.0,94,0.00,,,-99.99,,2013-06-02 06:21:00,
2013-06-02 02:32:00,67.0,65.0,-100.00,SSW,205,11.0,19.0,94,0.00,,,-99.99,,2013-06-02 06:32:00,
2013-06-02 02:42:00,67.0,66.0,-100.00,SSW,205,9.0,21.0,93,0.00,,,-99.99,,2013-06-02 06:42:00,
2013-06-02 02:52:00,67.0,65.0,-100.00,SSW,205,8.0,17.0,94,0.00,,,-99.99,,2013-06-02 06:52:00,
2013-06-02 03:02:00,67.0,65.0,-100.00,SSW,210,9.0,17.0,93,0.00,,,-99.99,,2013-06-02 07:02:00,
2013-06-02 03:11:00,66.0,64.0,-100.00,SSW,205,9.0,15.0,93,0.00,,,-99.99,,2013-06-02 07:11:00,
2013-06-02 03:21:00,66.0,64.0,-100.00,SSW,205,11.0,16.0,93,0.00,,,-99.99,,2013-06-02 07:21:00,
2013-06-02 03:32:00,66.0,64.0,-100.00,SSW,205,11.0,16.0,93,0.00,,,-99.99,,2013-06-02 07:32:00,
2013-06-02 03:42:00,65.0,62.0,-100.00,SSW,205,12.0,16.0,89,0.00,,,-99.99,,2013-06-02 07:42:00,
2013-06-02 03:52:00,65.0,62.0,-100.00,SSW,205,12.0,16.0,89,0.00,,,-99.99,,2013-06-02 07:52:00,
2013-06-02 04:02:00,65.0,61.0,-100.00,SSW,210,11.0,17.0,88,0.00,,,-99.99,,2013-06-02 08:02:00,
2013-06-02 04:12:00,64.0,61.0,-100.00,SSW,210,11.0,19.0,91,0.00,,,-99.99,,2013-06-02 08:12:00,
2013-06-02 04:21:00,64.0,61.0,-100.00,SSW,205,11.0,16.0,92,0.00,,,-99.99,,2013-06-02 08:21:00,
2013-06-02 04:32:00,63.0,61.0,-100.00,SSW,210,10.0,16.0,93,0.00,,,-99.99,,2013-06-02 08:32:00,
2013-06-02 04:42:00,63.0,61.0,-100.00,SSW,205,5.0,15.0,95,0.00,,,-99.99,,2013-06-02 08:42:00,
2013-06-02 04:52:00,62.0,61.0,-100.00,SSW,210,11.0,16.0,96,0.00,,,-99.99,,2013-06-02 08:52:00,
2013-06-02 05:01:00,62.0,61.0,-100.00,SSW,205,11.0,16.0,97,0.00,,,-99.99,,2013-06-02 09:01:00,
2013-06-02 05:11:00,62.0,61.0,-100.00,SSW,210,10.0,14.0,99,0.00,,,-99.99,,2013-06-02 09:11:00,
2013-06-02 05:21:00,62.0,62.0,-100.00,SSW,205,11.0,15.0,99,0.00,,,-99.99,,2013-06-02 09:21:00,
2013-06-02 05:33:00,62.0,62.0,-100.00,SSW,210,9.0,13.0,99,0.00,,,-99.99,,2013-06-02 09:33:00,
2013-06-02 05:43:00,62.0,-99.9,-100.00,SSW,210,10.0,13.0,-999,0.00,,,-99.99,,2013-06-02 09:43:00,
2013-06-02 05:53:00,61.0,-99.9,-100.00,SSW,210,9.0,16.0,-999,0.00,,,-99.99,,2013-06-02 09:53:00,
2013-06-02 06:03:00,62.0,-99.9,-100.00,SSW,205,9.0,12.0,-999,0.00,,,-99.99,,2013-06-02 10:03:00,
2013-06-02 06:13:00,62.0,-99.9,-100.00,SSW,210,10.0,14.0,-999,0.00,,,-99.99,,2013-06-02 10:13:00,
2013-06-02 06:23:00,62.0,-99.9,-100.00,SSW,210,11.0,14.0,-999,0.00,,,-99.99,,2013-06-02 10:23:00,
2013-06-02 06:33:00,62.0,-99.9,-100.00,SW,215,6.0,12.0,-999,0.00,,,-99.99,,2013-06-02 10:33:00,
2013-06-02 06:42:00,62.0,-99.9,-100.00,SSW,205,8.0,13.0,-999,0.00,,,-99.99,,2013-06-02 10:42:00,
2013-06-02 06:53:00,62.0,-99.9,-100.00,SSW,210,11.0,14.0,-999,0.00,,,-99.99,,2013-06-02 10:53:00,
2013-06-02 07:02:00,62.0,-99.9,-100.00,SSW,210,11.0,14.0,-999,0.00,,,-99.99,,2013-06-02 11:02:00,
2013-06-02 07:12:00,62.0,62.0,-100.00,SW,215,12.0,16.0,99,0.00,,,-99.99,,2013-06-02 11:12:00,
2013-06-02 07:22:00,62.0,62.0,-100.00,SW,215,11.0,16.0,98,0.00,,,-99.99,,2013-06-02 11:22:00,
2013-06-02 07:32:00,62.0,62.0,-100.00,SW,220,9.0,20.0,97,0.00,,,-99.99,,2013-06-02 11:32:00,
2013-06-02 07:42:00,63.0,62.0,-100.00,SW,220,10.0,15.0,96,0.00,,,-99.99,,2013-06-02 11:42:00,
2013-06-02 07:52:00,63.0,62.0,-100.00,SSW,210,12.0,16.0,96,0.00,,,-99.99,,2013-06-02 11:52:00,
2013-06-02 08:02:00,63.0,62.0,-100.00,SSW,210,12.0,16.0,96,0.00,,,-99.99,,2013-06-02 12:02:00,
2013-06-02 08:11:00,63.0,62.0,-100.00,SW,215,11.0,14.0,94,0.00,,,-99.99,,2013-06-02 12:11:00,
2013-06-02 08:21:00,64.0,62.0,-100.00,SW,215,9.0,14.0,93,0.00,,,-99.99,,2013-06-02 12:21:00,
2013-06-02 08:32:00,64.0,61.0,-100.00,SSW,210,11.0,16.0,92,0.00,,,-99.99,,2013-06-02 12:32:00,
2013-06-02 08:42:00,64.0,61.0,-100.00,SW,225,11.0,14.0,91,0.00,,,-99.99,,2013-06-02 12:42:00,
2013-06-02 08:52:00,64.0,62.0,-100.00,SW,220,8.0,13.0,92,0.00,,,-99.99,,2013-06-02 12:52:00,
2013-06-02 09:01:00,64.0,61.0,-100.00,SW,220,11.0,14.0,91,0.00,,,-99.99,,2013-06-02 13:01:00,
2013-06-02 09:12:00,64.0,61.0,-100.00,SW,220,11.0,14.0,91,0.00,,,-99.99,,2013-06-02 13:12:00,
2013-06-02 09:21:00,64.0,61.0,-100.00,SW,225,9.0,14.0,89,0.00,,,-99.99,,2013-06-02 13:21:00,
2013-06-02 09:32:00,64.0,61.0,-100.00,SW,225,9.0,14.0,89,0.00,,,-99.99,,2013-06-02 13:32:00,
2013-06-02 09:42:00,64.0,60.0,-100.00,SW,230,11.0,17.0,88,0.00,,,-99.99,,2013-06-02 13:42:00,
2013-06-02 09:52:00,64.0,61.0,-100.00,SW,230,7.0,16.0,88,0.00,,,-99.99,,2013-06-02 13:52:00,
2013-06-02 10:02:00,64.0,60.0,-100.00,SW,225,11.0,16.0,87,0.00,,,-99.99,,2013-06-02 14:02:00,
2013-06-02 10:11:00,65.0,61.0,-100.00,SW,225,10.0,14.0,87,0.00,,,-99.99,,2013-06-02 14:11:00,
2013-06-02 10:21:00,65.0,61.0,-100.00,SW,225,10.0,14.0,87,0.00,,,-99.99,,2013-06-02 14:21:00,
2013-06-02 10:32:00,65.0,60.0,-100.00,SW,230,12.0,17.0,82,0.00,,,-99.99,,2013-06-02 14:32:00,
2013-06-02 10:42:00,65.0,60.0,-100.00,SW,230,12.0,16.0,82,0.00,,,-99.99,,2013-06-02 14:42:00,
2013-06-02 10:52:00,65.0,60.0,-100.00,SW,230,10.0,16.0,81,0.00,,,-99.99,,2013-06-02 14:52:00,
2013-06-02 11:01:00,65.0,59.0,-100.00,SSW,210,9.0,15.0,80,0.00,,,-99.99,,2013-06-02 15:01:00,
2013-06-02 11:11:00,66.0,60.0,-100.00,SSW,210,12.0,17.0,80,0.00,,,-99.99,,2013-06-02 15:11:00,
2013-06-02 11:21:00,66.0,59.0,-100.00,SW,225,10.0,15.0,78,0.00,,,-99.99,,2013-06-02 15:21:00,
2013-06-02 11:33:00,68.0,60.0,-100.00,SW,220,9.0,13.0,76,0.00,,,-99.99,,2013-06-02 15:33:00,
2013-06-02 11:43:00,68.0,60.0,-100.00,SW,220,9.0,13.0,76,0.00,,,-99.99,,2013-06-02 15:43:00,
2013-06-02 11:53:00,67.0,60.0,-100.00,SSW,210,9.0,12.0,79,0.00,,,-99.99,,2013-06-02 15:53:00,
2013-06-02 12:03:00,67.0,60.0,-100.00,SSW,210,11.0,14.0,78,0.00,,,-99.99,,2013-06-02 16:03:00,
2013-06-02 12:13:00,67.0,60.0,-100.00,SW,220,10.0,16.0,77,0.00,,,-99.99,,2013-06-02 16:13:00,
2013-06-02 12:23:00,67.0,60.0,-100.00,SSW,210,11.0,16.0,77,0.00,,,-99.99,,2013-06-02 16:23:00,
2013-06-02 12:33:00,67.0,60.0,-100.00,SSW,210,12.0,15.0,77,0.00,,,-99.99,,2013-06-02 16:33:00,
2013-06-02 12:42:00,67.0,60.0,-100.00,SW,215,9.0,14.0,77,0.00,,,-99.99,,2013-06-02 16:42:00,
2013-06-02 12:52:00,69.0,61.0,-100.00,SW,225,10.0,15.0,74,0.00,,,-99.99,,2013-06-02 16:52:00,
2013-06-02 13:02:00,69.0,60.0,-100.00,SW,235,15.0,20.0,71,0.00,,,-99.99,,2013-06-02 17:02:00,
2013-06-02 13:12:00,70.0,60.0,-100.00,SW,225,13.0,22.0,71,0.00,,,-99.99,,2013-06-02 17:12:00,
2013-06-02 13:23:00,70.0,60.0,-100.00,SW,230,11.0,20.0,70,0.00,,,-99.99,,2013-06-02 17:23:00,
2013-06-02 13:32:00,69.0,61.0,-100.00,SW,235,13.0,20.0,75,0.00,,,-99.99,,2013-06-02 17:32:00,
2013-06-02 13:42:00,69.0,61.0,-100.00,WSW,245,11.0,19.0,75,0.00,,,-99.99,,2013-06-02 17:42:00,
2013-06-02 13:52:00,68.0,60.0,-100.00,WSW,245,11.0,19.0,76,0.00,,,-99.99,,2013-06-02 17:52:00,
2013-06-02 14:02:00,68.0,60.0,-100.00,WSW,240,13.0,18.0,75,0.00,,,-99.99,,2013-06-02 18:02:00,
2013-06-02 14:11:00,67.0,59.0,-100.00,SW,235,12.0,17.0,75,0.00,,,-99.99,,2013-06-02 18:11:00,
2013-06-02 14:21:00,68.0,60.0,-100.00,SW,230,9.0,16.0,75,0.00,,,-99.99,,2013-06-02 18:21:00,
2013-06-02 14:32:00,67.0,60.0,-100.00,WSW,245,9.0,16.0,75,0.00,,,-99.99,,2013-06-02 18:32:00,
2013-06-02 14:42:00,68.0,60.0,-100.00,WSW,250,11.0,14.0,74,0.00,,,-99.99,,2013-06-02 18:42:00,
2013-06-02 14:52:00,68.0,60.0,-100.00,WSW,240,12.0,15.0,75,0.00,,,-99.99,,2013-06-02 18:52:00,
2013-06-02 15:01:00,67.0,59.0,-100.00,WSW,245,13.0,17.0,75,0.00,,,-99.99,,2013-06-02 19:01:00,
2013-06-02 15:11:00,67.0,59.0,-100.00,SW,235,12.0,17.0,74,0.00,,,-99.99,,2013-06-02 19:11:00,
2013-06-02 15:21:00,68.0,60.0,-100.00,WSW,250,12.0,16.0,75,0.00,,,-99.99,,2013-06-02 19:21:00,
2013-06-02 15:32:00,68.0,59.0,-100.00,WSW,240,12.0,17.0,73,0.00,,,-99.99,,2013-06-02 19:32:00,
2013-06-02 15:42:00,67.0,58.0,-100.00,WSW,240,12.0,16.0,72,0.00,,,-99.99,,2013-06-02 19:42:00,
2013-06-02 15:52:00,68.0,58.0,-100.00,SW,235,14.0,17.0,69,0.00,,,-99.99,,2013-06-02 19:52:00,
2013-06-02 16:02:00,67.0,59.0,-100.00,WSW,240,9.0,16.0,73,0.00,,,-99.99,,2013-06-02 20:02:00,
2013-06-02 16:11:00,69.0,58.0,-100.00,SW,235,14.0,18.0,68,0.00,,,-99.99,,2013-06-02 20:11:00,
2013-06-02 16:22:00,67.0,58.0,-100.00,WSW,245,11.0,18.0,72,0.00,,,-99.99,,2013-06-02 20:22:00,
2013-06-02 16:32:00,67.0,58.0,-100.00,WSW,245,11.0,17.0,71,0.00,,,-99.99,,2013-06-02 20:32:00,
2013-06-02 16:42:00,67.0,57.0,-100.00,WSW,240,11.0,17.0,71,0.00,,,-99.99,,2013-06-02 20:42:00,
2013-06-02 16:52:00,68.0,58.0,-100.00,SW,235,11.0,17.0,70,0.00,,,-99.99,,2013-06-02 20:52:00,
2013-06-02 17:02:00,67.0,57.0,-100.00,SW,230,13.0,18.0,71,0.00,,,-99.99,,2013-06-02 21:02:00,
2013-06-02 17:12:00,65.0,56.0,-100.00,WSW,240,13.0,18.0,70,0.00,,,-99.99,,2013-06-02 21:12:00,
2013-06-02 17:21:00,66.0,56.0,-100.00,WSW,240,14.0,17.0,70,0.00,,,-99.99,,2013-06-02 21:21:00,
2013-06-02 17:33:00,65.0,56.0,-100.00,WSW,255,11.0,17.0,72,0.00,,,-99.99,,2013-06-02 21:33:00,
2013-06-02 17:42:00,65.0,56.0,-100.00,WSW,245,12.0,17.0,73,0.00,,,-99.99,,2013-06-02 21:42:00,
2013-06-02 17:53:00,66.0,56.0,-100.00,WSW,250,12.0,17.0,70,0.00,,,-99.99,,2013-06-02 21:53:00,
2013-06-02 18:03:00,65.0,55.0,-100.00,WSW,245,14.0,20.0,70,0.00,,,-99.99,,2013-06-02 22:03:00,
2013-06-02 18:12:00,64.0,55.0,-100.00,WSW,240,12.0,19.0,73,0.00,,,-99.99,,2013-06-02 22:12:00,
2013-06-02 18:23:00,65.0,55.0,-100.00,WSW,240,13.0,20.0,69,0.00,,,-99.99,,2013-06-02 22:23:00,
2013-06-02 18:33:00,63.0,54.0,-100.00,WSW,250,12.0,19.0,72,0.00,,,-99.99,,2013-06-02 22:33:00,
2013-06-02 18:42:00,64.0,54.0,-100.00,WSW,255,11.0,18.0,70,0.00,,,-99.99,,2013-06-02 22:42:00,
2013-06-02 18:52:00,63.0,54.0,-100.00,WSW,255,12.0,18.0,73,0.00,,,-99.99,,2013-06-02 22:52:00,
2013-06-02 19:02:00,63.0,54.0,-100.00,West,260,12.0,17.0,71,0.00,,,-99.99,,2013-06-02 23:02:00,
2013-06-02 19:12:00,62.0,53.0,-100.00,WSW,245,12.0,17.0,72,0.00,,,-99.99,,2013-06-02 23:12:00,
2013-06-02 19:22:00,61.0,53.0,-100.00,WSW,245,11.0,18.0,74,0.00,,,-99.99,,2013-06-02 23:22:00,
2013-06-02 19:32:00,60.0,52.0,-100.00,WSW,255,12.0,20.0,74,0.00,,,-99.99,,2013-06-02 23:32:00,
2013-06-02 19:42:00,61.0,52.0,-100.00,WSW,245,12.0,17.0,72,0.00,,,-99.99,,2013-06-02 23:42:00,
2013-06-02 19:52:00,61.0,52.0,-100.00,WSW,250,11.0,18.0,71,0.00,,,-99.99,,2013-06-02 23:52:00,
2013-06-02 20:01:00,59.0,52.0,-100.00,WSW,250,9.0,19.0,75,0.00,,,-99.99,,2013-06-03 00:01:00,
2013-06-02 20:12:00,59.0,51.0,-100.00,West,260,11.0,17.0,75,0.00,,,-99.99,,2013-06-03 00:12:00,
2013-06-02 20:22:00,59.0,51.0,-100.00,WSW,245,9.0,14.0,73,0.00,,,-99.99,,2013-06-03 00:22:00,
2013-06-02 20:32:00,59.0,51.0,-100.00,WSW,250,10.0,13.0,72,0.00,,,-99.99,,2013-06-03 00:32:00,
2013-06-02 20:42:00,59.0,50.0,-100.00,WSW,245,9.0,12.0,72,0.00,,,-99.99,,2013-06-03 00:42:00,
2013-06-02 20:52:00,58.0,50.0,-100.00,WSW,255,10.0,14.0,73,0.00,,,-99.99,,2013-06-03 00:52:00,
2013-06-02 21:01:00,58.0,51.0,-100.00,WSW,250,7.0,12.0,75,0.00,,,-99.99,,2013-06-03 01:01:00,
2013-06-02 21:11:00,58.0,50.0,-100.00,WSW,245,9.0,12.0,74,0.00,,,-99.99,,2013-06-03 01:11:00,
2013-06-02 21:21:00,57.0,49.0,-100.00,WSW,245,9.0,14.0,75,0.00,,,-99.99,,2013-06-03 01:21:00,
2013-06-02 21:32:00,57.0,49.0,-100.00,WSW,245,9.0,14.0,75,0.00,,,-99.99,,2013-06-03 01:32:00,
2013-06-02 21:42:00,57.0,49.0,-100.00,WSW,245,9.0,14.0,75,0.00,,,-99.99,,2013-06-03 01:42:00,
2013-06-02 21:52:00,55.0,49.0,-100.00,WSW,250,7.0,12.0,79,0.00,,,-99.99,,2013-06-03 01:52:00,
2013-06-02 22:02:00,55.0,49.0,-100.00,WSW,245,7.0,12.0,79,0.00,,,-99.99,,2013-06-03 02:02:00,
2013-06-02 22:12:00,54.0,48.0,-100.00,WSW,250,9.0,12.0,80,0.00,,,-99.99,,2013-06-03 02:12:00,
2013-06-02 22:22:00,54.0,47.0,-100.00,WSW,240,7.0,14.0,79,0.00,,,-99.99,,2013-06-03 02:22:00,
2013-06-02 22:32:00,53.0,47.0,-100.00,WSW,250,8.0,14.0,79,0.00,,,-99.99,,2013-06-03 02:32:00,
2013-06-02 22:42:00,53.0,47.0,-100.00,WSW,250,9.0,13.0,81,0.00,,,-99.99,,2013-06-03 02:42:00,
2013-06-02 22:52:00,53.0,47.0,-100.00,WSW,245,9.0,13.0,81,0.00,,,-99.99,,2013-06-03 02:52:00,
2013-06-02 23:02:00,52.0,47.0,-100.00,WSW,250,9.0,12.0,81,0.00,,,-99.99,,2013-06-03 03:02:00,
2013-06-02 23:12:00,52.0,47.0,-100.00,WSW,250,9.0,12.0,81,0.00,,,-99.99,,2013-06-03 03:12:00,
2013-06-02 23:22:00,52.0,47.0,-100.00,WSW,250,9.0,12.0,81,0.00,,,-99.99,,2013-06-03 03:22:00,
2013-06-02 23:33:00,51.0,47.0,-100.00,WSW,240,4.0,7.0,86,0.00,,,-99.99,,2013-06-03 03:33:00,
2013-06-02 23:43:00,50.0,47.0,-100.00,SW,235,4.0,7.0,88,0.00,,,-99.99,,2013-06-03 03:43:00,
2013-06-02 23:53:00,50.0,47.0,-100.00,SW,225,4.0,6.0,89,0.00,,,-99.99,,2013-06-03 03:53:00,